Le nostre stazioni meteo in Italia

Pubblicità
Il mio iltempo24.it
Cozzo Spadaro, Italia (16480): Temperatura & dewpoint: 14.02.2017 16:00:00 - 20.02.2017 16:00:00 (CET)Cozzo Spadaro, Italia (16480): velocità del vento: 14.02.2017 16:00:00 - 20.02.2017 16:00:00 (CET)Cozzo Spadaro, Italia (16480): direzione del vento: 14.02.2017 16:00:00 - 20.02.2017 16:00:00 (CET)Cozzo Spadaro, Italia (16480): reduced air pressure: 14.02.2017 16:00:00 - 20.02.2017 16:00:00 (CET)Cozzo Spadaro, Italia (16480): visibility: 14.02.2017 16:00:00 - 20.02.2017 16:00:00 (CET)Cozzo Spadaro, Italia (16480): ore di luce: 14.02.2017 16:00:00 - 20.02.2017 16:00:00 (CET)
Data & Tempo tt [°C] td [°C] ff [km/h] ff [kn] dd ppp [hPa] vv [km] sd [min]
20.02.2017 16:00:00 13,6 9,1 4 2 ESE 1020,2 25 6
20.02.2017 15:00:00 13,4 8,5 5 3 E 1020,3 25 0
20.02.2017 14:00:00 14,0 9,2 9 5 E 1020,8 25 12
20.02.2017 13:00:00 15,2 9,4 16 9 ENE 1021,1 25 60
20.02.2017 12:00:00 15,0 9,4 15 8 ENE 1021,3 25 60
20.02.2017 11:00:00 15,0 9,2 18 10 ENE 1021,4 20 60
20.02.2017 10:00:00 14,0 9,7 18 10 ENE 1021,2 25 48
20.02.2017 09:00:00 12,4 8,9 21 11 ENE 1021,1 20 0
20.02.2017 08:00:00 12,2 8,5 21 11 ENE 1020,9 20 0
20.02.2017 07:00:00 12,0 8,7 22 12 ENE 1020,2 20 -
20.02.2017 06:00:00 - - - - - - - -
20.02.2017 05:00:00 - - - - - - - -
20.02.2017 04:00:00 - - - - - - - -
20.02.2017 03:00:00 - - - - - - - -
20.02.2017 02:00:00 - - - - - - - -
20.02.2017 01:00:00 - - - - - - - -
20.02.2017 00:00:00 - - - - - - - -
19.02.2017 23:00:00 - - - - - - - -
19.02.2017 22:00:00 - - - - - - - -
19.02.2017 21:00:00 - - - - - - - -
19.02.2017 20:00:00 - - - - - - - -
19.02.2017 19:00:00 - - - - - - - -
19.02.2017 18:00:00 - - - - - - - -
19.02.2017 17:00:00 - - - - - - - -
19.02.2017 16:00:00 - - - - - - - -
19.02.2017 15:00:00 - - - - - - - -
19.02.2017 14:00:00 - - - - - - - -
19.02.2017 13:00:00 - - - - - - - -
19.02.2017 12:00:00 - - - - - - - -
19.02.2017 11:00:00 - - - - - - - -
19.02.2017 10:00:00 - - - - - - - -
19.02.2017 09:00:00 - - - - - - - -
19.02.2017 08:00:00 - - - - - - - -
19.02.2017 07:00:00 - - - - - - - -
19.02.2017 06:00:00 - - - - - - - -
19.02.2017 05:00:00 - - - - - - - -
19.02.2017 04:00:00 - - - - - - - -
19.02.2017 03:00:00 - - - - - - - -
19.02.2017 02:00:00 - - - - - - - -
19.02.2017 01:00:00 - - - - - - - -
19.02.2017 00:00:00 - - - - - - - -
18.02.2017 23:00:00 - - - - - - - -
18.02.2017 22:00:00 - - - - - - - -
18.02.2017 21:00:00 - - - - - - - -
18.02.2017 20:00:00 - - - - - - - -
18.02.2017 19:00:00 13,8 12,9 4 2 S 1018,9 10 -
18.02.2017 18:00:00 14,0 13,0 4 2 S 1018,9 10 0
18.02.2017 17:00:00 14,6 13,5 4 2 SSE 1018,9 15 18
18.02.2017 16:00:00 14,6 12,8 4 2 SE 1019,1 15 12
18.02.2017 15:00:00 15,0 12,7 4 2 SE 1019,3 20 60
18.02.2017 14:00:00 15,0 12,3 4 2 SE 1020,2 20 60
18.02.2017 13:00:00 14,8 12,0 4 2 SE 1021,2 20 60
18.02.2017 12:00:00 14,6 11,4 5 3 SSE 1022,1 20 60
18.02.2017 11:00:00 14,4 11,0 5 3 SSE 1022,2 20 60
18.02.2017 10:00:00 12,8 9,6 4 2 NNE 1022,2 20 48
18.02.2017 09:00:00 12,0 9,2 4 2 NNE 1022,2 18 42
18.02.2017 08:00:00 10,0 8,3 4 2 NO 1022,2 18 18
18.02.2017 07:00:00 9,2 8,4 4 2 ONO 1022,1 12 0
18.02.2017 06:00:00 - - - - - - - -
18.02.2017 05:00:00 - - - - - - - -
18.02.2017 04:00:00 - - - - - - - -
18.02.2017 03:00:00 - - - - - - - -
18.02.2017 02:00:00 - - - - - - - -
18.02.2017 01:00:00 - - - - - - - -
18.02.2017 00:00:00 - - - - - - - -
17.02.2017 23:00:00 - - - - - - - -
17.02.2017 22:00:00 - - - - - - - -
17.02.2017 21:00:00 - - - - - - - -
17.02.2017 20:00:00 - - - - - - - -
17.02.2017 19:00:00 11,2 8,8 9 5 O 1024,0 18 -
17.02.2017 18:00:00 12,0 9,4 13 7 O 1024,3 20 0
17.02.2017 17:00:00 12,8 9,4 18 10 O 1024,3 20 60
17.02.2017 16:00:00 13,8 10,0 16 9 O 1025,0 20 60
17.02.2017 15:00:00 14,0 9,8 21 11 O 1025,2 20 60
17.02.2017 14:00:00 14,0 9,4 18 10 O 1026,0 20 60
17.02.2017 13:00:00 14,0 9,7 18 10 O 1026,9 20 60
17.02.2017 12:00:00 13,8 9,7 18 10 O 1027,2 20 60
17.02.2017 11:00:00 13,6 9,5 16 9 O 1028,1 20 60
17.02.2017 10:00:00 13,0 9,2 13 7 O 1028,2 20 60
17.02.2017 09:00:00 11,4 8,8 9 5 E 1028,3 18 60
17.02.2017 08:00:00 9,6 7,7 9 5 ONO 1028,3 18 12
17.02.2017 07:00:00 8,2 6,7 8 4 NO 1028,3 18 0
17.02.2017 06:00:00 - - - - - - - -
17.02.2017 05:00:00 - - - - - - - -
17.02.2017 04:00:00 - - - - - - - -
17.02.2017 03:00:00 - - - - - - - -
17.02.2017 02:00:00 - - - - - - - -
17.02.2017 01:00:00 - - - - - - - -
17.02.2017 00:00:00 - - - - - - - -
16.02.2017 23:00:00 - - - - - - - -
16.02.2017 22:00:00 - - - - - - - -
16.02.2017 21:00:00 - - - - - - - -
16.02.2017 20:00:00 - - - - - - - -
16.02.2017 19:00:00 11,6 9,4 9 5 O 1029,5 18 -
16.02.2017 18:00:00 12,0 9,2 9 5 O 1029,5 20 0
16.02.2017 17:00:00 13,2 9,1 11 6 O 1030,0 20 60
16.02.2017 16:00:00 14,4 9,2 11 6 O 1030,2 20 60
16.02.2017 15:00:00 15,0 9,2 13 7 O 1030,2 20 60
16.02.2017 14:00:00 15,0 10,2 8 4 NO 1030,6 20 60
16.02.2017 13:00:00 14,8 9,8 4 2 SE 1031,2 20 60
16.02.2017 12:00:00 14,2 9,8 4 2 SE 1031,3 20 60
16.02.2017 11:00:00 13,4 9,2 4 2 E 1031,4 20 60
16.02.2017 10:00:00 13,0 8,9 4 2 ENE 1031,4 20 60
16.02.2017 09:00:00 11,0 8,4 4 2 NNE 1031,2 20 60
16.02.2017 08:00:00 9,8 7,6 4 2 O 1031,1 20 42
16.02.2017 07:00:00 8,4 6,4 4 2 NNO 1030,9 18 0
16.02.2017 06:00:00 - - - - - - - -
16.02.2017 05:00:00 - - - - - - - -
16.02.2017 04:00:00 - - - - - - - -
16.02.2017 03:00:00 - - - - - - - -
16.02.2017 02:00:00 - - - - - - - -
16.02.2017 01:00:00 - - - - - - - -
16.02.2017 00:00:00 - - - - - - - -
15.02.2017 23:00:00 - - - - - - - -
15.02.2017 22:00:00 - - - - - - - -
15.02.2017 21:00:00 - - - - - - - -
15.02.2017 20:00:00 - - - - - - - -
15.02.2017 19:00:00 10,8 8,0 5 3 E 1031,2 15 -
15.02.2017 18:00:00 11,0 7,7 2 1 E 1031,2 15 0
15.02.2017 17:00:00 12,0 8,1 5 3 E 1031,3 25 60
15.02.2017 16:00:00 13,4 8,7 8 4 E 1031,3 25 60
15.02.2017 15:00:00 14,0 8,4 9 5 E 1031,4 25 60
15.02.2017 14:00:00 14,0 8,4 11 6 E 1031,6 25 60
15.02.2017 13:00:00 14,0 7,8 11 6 E 1032,2 25 48
15.02.2017 12:00:00 14,0 8,2 13 7 E 1032,7 25 48
15.02.2017 11:00:00 14,0 7,8 13 7 E 1032,7 25 60
15.02.2017 10:00:00 14,0 8,0 15 8 E 1032,5 20 60
15.02.2017 09:00:00 12,8 6,8 16 9 E 1032,2 25 60
15.02.2017 08:00:00 12,0 6,1 16 9 E 1031,8 25 42
15.02.2017 07:00:00 11,4 5,7 18 10 E 1031,0 20 0
15.02.2017 06:00:00 - - - - - - - -
15.02.2017 05:00:00 - - - - - - - -
15.02.2017 04:00:00 - - - - - - - -
15.02.2017 03:00:00 - - - - - - - -
15.02.2017 02:00:00 - - - - - - - -
15.02.2017 01:00:00 - - - - - - - -
15.02.2017 00:00:00 - - - - - - - -
14.02.2017 23:00:00 - - - - - - - -
14.02.2017 22:00:00 - - - - - - - -
14.02.2017 21:00:00 - - - - - - - -
14.02.2017 20:00:00 - - - - - - - -
14.02.2017 19:00:00 12,2 9,8 18 10 E 1027,9 15 -
14.02.2017 18:00:00 12,4 10,3 18 10 E 1027,3 20 0
14.02.2017 17:00:00 13,0 10,5 18 10 E 1027,2 20 60
14.02.2017 16:00:00 13,8 10,8 24 13 E 1027,0 20 60

tt = Temperatura
td = dewpoint
ff = velocità del vento
dd = direzione del vento
ppp = reduced air pressure
vv = visibility
sd = ore di luce

Stazioni seguenti

WeatherPro
AMSI
MeteoEarth